TimeCDT,TemperatureF,Dew PointF,Humidity,Sea Level PressureIn,VisibilityMPH,Wind Direction,Wind SpeedMPH,Gust SpeedMPH,PrecipitationIn,Events,Conditions,WindDirDegrees,DateUTC
12:11 AM,46.4,32.0,57,30.29,10.0,North,3.5,-,N/A,,Clear,360,2013-05-25 05:11:00
12:31 AM,46.4,30.2,53,30.28,10.0,North,3.5,-,N/A,,Clear,10,2013-05-25 05:31:00
12:52 AM,46.4,32.0,57,30.27,10.0,Calm,Calm,-,N/A,,Clear,0,2013-05-25 05:52:00
1:11 AM,44.6,32.0,61,30.26,10.0,Calm,Calm,-,N/A,,Clear,0,2013-05-25 06:11:00
1:31 AM,44.6,32.0,61,30.27,10.0,Calm,Calm,-,N/A,,Clear,0,2013-05-25 06:31:00
1:51 AM,44.6,32.0,61,30.27,10.0,Calm,Calm,-,N/A,,Clear,0,2013-05-25 06:51:00
2:11 AM,44.6,33.8,66,30.27,10.0,Calm,Calm,-,N/A,,Clear,0,2013-05-25 07:11:00
2:31 AM,44.6,33.8,66,30.27,10.0,Calm,Calm,-,N/A,,Clear,0,2013-05-25 07:31:00
2:51 AM,44.6,30.2,57,30.27,10.0,Calm,Calm,-,N/A,,Clear,0,2013-05-25 07:51:00
3:11 AM,44.6,30.2,57,30.27,10.0,NE,3.5,-,N/A,,Scattered Clouds,40,2013-05-25 08:11:00
3:31 AM,44.6,30.2,57,30.27,10.0,NE,3.5,-,N/A,,Clear,40,2013-05-25 08:31:00
3:51 AM,44.6,30.2,57,30.27,10.0,NNE,3.5,-,N/A,,Clear,30,2013-05-25 08:51:00
4:11 AM,44.6,30.2,57,30.27,10.0,NE,3.5,-,N/A,,Scattered Clouds,50,2013-05-25 09:11:00
4:31 AM,44.6,30.2,57,30.28,10.0,NE,4.6,-,N/A,,Scattered Clouds,50,2013-05-25 09:31:00
4:51 AM,44.6,30.2,57,30.29,10.0,NE,4.6,-,N/A,,Scattered Clouds,50,2013-05-25 09:51:00
5:11 AM,42.8,30.2,61,30.29,10.0,Calm,Calm,-,N/A,,Mostly Cloudy,0,2013-05-25 10:11:00
5:31 AM,42.8,32.0,66,30.30,10.0,NE,3.5,-,N/A,,Mostly Cloudy,40,2013-05-25 10:31:00
5:51 AM,44.6,32.0,61,30.31,10.0,NNE,3.5,-,N/A,,Overcast,30,2013-05-25 10:51:00
6:11 AM,44.6,32.0,61,30.31,10.0,NE,5.8,-,N/A,Rain,Light Rain,40,2013-05-25 11:11:00
6:31 AM,44.6,33.8,66,30.32,10.0,NE,4.6,-,N/A,,Mostly Cloudy,40,2013-05-25 11:31:00
6:51 AM,44.6,33.8,66,30.32,10.0,NE,3.5,-,N/A,,Scattered Clouds,40,2013-05-25 11:51:00
7:11 AM,46.4,33.8,62,30.32,10.0,ENE,8.1,-,N/A,,Clear,60,2013-05-25 12:11:00
7:31 AM,46.4,33.8,62,30.31,10.0,NE,6.9,-,N/A,,Scattered Clouds,50,2013-05-25 12:31:00
7:51 AM,46.4,33.8,62,30.32,10.0,ENE,6.9,-,N/A,,Scattered Clouds,70,2013-05-25 12:51:00
8:11 AM,48.2,33.8,58,30.33,10.0,ENE,6.9,-,N/A,,Clear,70,2013-05-25 13:11:00
8:31 AM,48.2,33.8,58,30.32,10.0,ENE,8.1,-,N/A,,Clear,70,2013-05-25 13:31:00
8:51 AM,48.2,33.8,58,30.31,10.0,NE,6.9,-,N/A,,Clear,50,2013-05-25 13:51:00
9:11 AM,50.0,33.8,54,30.31,10.0,NE,8.1,-,N/A,,Clear,40,2013-05-25 14:11:00
9:31 AM,51.8,35.6,54,30.31,10.0,East,10.4,-,N/A,,Clear,80,2013-05-25 14:31:00
9:51 AM,53.6,37.4,54,30.30,10.0,East,11.5,-,N/A,,Scattered Clouds,80,2013-05-25 14:51:00
10:11 AM,51.8,35.6,54,30.31,10.0,East,12.7,-,N/A,,Overcast,80,2013-05-25 15:11:00
10:31 AM,51.8,35.6,54,30.31,10.0,ENE,9.2,-,N/A,,Overcast,70,2013-05-25 15:31:00
10:51 AM,51.8,35.6,54,30.31,10.0,ENE,10.4,-,N/A,,Overcast,70,2013-05-25 15:51:00
11:11 AM,51.8,35.6,54,30.31,10.0,NE,10.4,18.4,N/A,,Overcast,50,2013-05-25 16:11:00
11:31 AM,51.8,35.6,54,30.31,10.0,ENE,10.4,-,N/A,,Overcast,60,2013-05-25 16:31:00
11:51 AM,53.6,35.6,51,30.31,10.0,NE,10.4,-,N/A,,Overcast,40,2013-05-25 16:51:00
12:12 PM,53.6,35.6,51,30.31,10.0,ENE,10.4,17.3,N/A,,Overcast,60,2013-05-25 17:12:00
12:31 PM,53.6,37.4,54,30.31,10.0,ENE,12.7,-,N/A,,Overcast,60,2013-05-25 17:31:00
12:51 PM,55.4,37.4,51,30.31,10.0,ENE,11.5,-,N/A,,Scattered Clouds,60,2013-05-25 17:51:00
1:11 PM,57.2,39.2,51,30.31,10.0,ENE,9.2,-,N/A,,Scattered Clouds,60,2013-05-25 18:11:00
1:31 PM,57.2,39.2,51,30.30,10.0,East,10.4,-,N/A,,Scattered Clouds,80,2013-05-25 18:31:00
1:52 PM,59.0,39.2,48,30.30,10.0,NE,5.8,-,N/A,,Clear,50,2013-05-25 18:52:00
2:11 PM,60.8,41.0,48,30.30,10.0,ENE,11.5,-,N/A,,Clear,70,2013-05-25 19:11:00
2:31 PM,60.8,39.2,45,30.30,10.0,ENE,11.5,-,N/A,,Clear,60,2013-05-25 19:31:00
2:51 PM,60.8,39.2,45,30.30,10.0,East,12.7,16.1,N/A,,Clear,90,2013-05-25 19:51:00
3:12 PM,57.2,39.2,51,30.30,10.0,ENE,13.8,17.3,N/A,,Clear,70,2013-05-25 20:12:00
3:31 PM,57.2,37.4,48,30.31,10.0,East,11.5,-,N/A,,Clear,90,2013-05-25 20:31:00
3:51 PM,57.2,37.4,48,30.30,10.0,East,13.8,17.3,N/A,,Clear,90,2013-05-25 20:51:00
4:12 PM,57.2,39.2,51,30.30,10.0,ENE,13.8,-,N/A,,Clear,70,2013-05-25 21:12:00
4:31 PM,57.2,37.4,48,30.30,10.0,East,17.3,21.9,N/A,,Clear,80,2013-05-25 21:31:00
4:51 PM,59.0,39.2,48,30.30,10.0,ENE,16.1,-,N/A,,Clear,60,2013-05-25 21:51:00
5:12 PM,57.2,37.4,48,30.30,10.0,NE,13.8,-,N/A,,Clear,50,2013-05-25 22:12:00
5:31 PM,57.2,35.6,44,30.29,10.0,ENE,17.3,20.7,N/A,,Clear,70,2013-05-25 22:31:00
5:51 PM,57.2,35.6,44,30.29,10.0,ENE,16.1,21.9,N/A,,Clear,60,2013-05-25 22:51:00
6:12 PM,57.2,35.6,44,30.30,10.0,ENE,13.8,19.6,N/A,,Clear,70,2013-05-25 23:12:00
6:31 PM,55.4,33.8,44,30.29,10.0,ENE,15.0,20.7,N/A,,Clear,70,2013-05-25 23:31:00
6:51 PM,55.4,33.8,44,30.29,10.0,NE,12.7,18.4,N/A,,Clear,40,2013-05-25 23:51:00
7:12 PM,53.6,32.0,44,30.29,10.0,NE,13.8,19.6,N/A,,Clear,50,2013-05-26 00:12:00
7:31 PM,53.6,32.0,44,30.28,10.0,NE,10.4,19.6,N/A,,Clear,40,2013-05-26 00:31:00
7:51 PM,53.6,30.2,41,30.28,10.0,NE,11.5,18.4,N/A,,Clear,50,2013-05-26 00:51:00
8:12 PM,32.0,30.2,93,30.28,10.0,NE,6.9,-,N/A,,Clear,50,2013-05-26 01:12:00
8:31 PM,51.8,30.2,44,-9999,10.0,NE,5.8,-,N/A,,Clear,40,2013-05-26 01:31:00
8:51 PM,50.0,30.2,47,30.29,10.0,NE,8.1,-,N/A,,Clear,40,2013-05-26 01:51:00
9:12 PM,48.2,28.4,46,30.29,10.0,NE,8.1,-,N/A,,Scattered Clouds,40,2013-05-26 02:12:00
9:31 PM,48.2,28.4,46,30.28,10.0,NE,6.9,-,N/A,,Scattered Clouds,40,2013-05-26 02:31:00
9:51 PM,48.2,28.4,46,30.29,10.0,NNE,5.8,-,N/A,,Clear,30,2013-05-26 02:51:00
10:12 PM,46.4,28.4,50,30.29,10.0,NE,8.1,-,N/A,,Clear,40,2013-05-26 03:12:00
10:31 PM,46.4,28.4,50,30.30,10.0,NNE,4.6,-,N/A,,Clear,30,2013-05-26 03:31:00
10:52 PM,46.4,28.4,50,30.30,10.0,NE,5.8,-,N/A,,Clear,40,2013-05-26 03:52:00
11:12 PM,46.4,28.4,50,30.30,10.0,NNE,4.6,-,N/A,,Clear,20,2013-05-26 04:12:00
11:31 PM,44.6,28.4,53,30.30,10.0,NNE,5.8,-,N/A,,Clear,20,2013-05-26 04:31:00
11:51 PM,46.4,28.4,50,30.29,10.0,NNE,8.1,-,N/A,,Clear,30,2013-05-26 04:51:00